Simultaneous Nadir Overpasses (SNOs) Predictions

Prediction of SNOs between TERRA and METOP-C Satellite Orbit:

Table of predicted SNOs for the next 14.0 days since TLE Epoch: 1/9/2021
Index Date (TERRA) Time (TERRA) Lat,Lon (TERRA) SZA (TERRA ) Date (METOP-C) Time (METOP-C) Lat,Lon (METOP-C) SZA (METOP-C ) Distance(km) Time Diff (sec)
1 01/11/2021 14:23:47 81.28, 10.47 105.32 01/11/2021 14:23:31 81.28, 10.53 105.32 1.06 16
2 01/11/2021 15:13:13 -81.29, 178.39 74.65 01/11/2021 15:14:10 -81.29, 178.46 74.62 1.28 57
3 01/14/2021 09:58:01 81.28, 76.91 104.82 01/14/2021 09:57:54 81.28, 76.94 104.82 0.66 7
4 01/14/2021 10:47:27 -81.29,-115.15 75.15 01/14/2021 10:48:33 -81.29,-115.05 75.11 1.60 66
5 01/17/2021 04:42:48 -81.27, -24.39 75.75 01/17/2021 04:41:36 -81.27, -24.26 75.76 2.29 72
6 01/17/2021 05:32:14 81.27, 143.31 104.26 01/17/2021 05:32:16 81.28, 143.34 104.27 0.72 2
7 01/17/2021 06:21:16 -81.69, -39.22 74.42 01/17/2021 06:22:22 -81.27, -35.65 74.21 74.99 66
8 01/20/2021 00:17:02 -81.27, 42.00 76.36 01/20/2021 00:16:00 -81.27, 41.81 76.40 3.25 62
9 01/20/2021 01:06:27 81.29,-149.95 103.70 01/20/2021 01:06:38 81.28,-149.89 103.70 1.18 11
10 01/22/2021 19:51:15 -81.28, 108.74 76.97 01/22/2021 19:50:22 -81.28, 108.64 77.01 1.90 53



Historial Predications of SNOs between TERRA and METOP-C
